| time (UTC) | temp C | wind direction | speed KPH | gust KPH | rain 1hr cm | rain 24hr cm | rain mn cm | humidity % | barometer mb |
| 20260505093439 | 15 | 176 | 4.8 | 8.0 | 0.00 | 0.00 | 0.00 | 72 | 1011.7 |
| 20260505092139 | 15 | 201 | 6.4 | 11.3 | 0.00 | 0.00 | 0.00 | 71 | 1011.7 |
| 20260505090839 | 15 | 200 | 8.0 | 12.9 | 0.00 | 0.00 | 0.00 | 71 | 1011.7 |
| 20260505085539 | 15 | 196 | 8.0 | 12.9 | 0.00 | 0.00 | 0.00 | 71 | 1011.7 |
| 20260505084239 | 15 | 196 | 8.0 | 12.9 | 0.00 | 0.00 | 0.00 | 71 | 1011.7 |
| 20260505082939 | 15 | 183 | 6.4 | 12.9 | 0.00 | 0.00 | 0.00 | 70 | 1011.6 |
| 20260505081639 | 15 | 200 | 6.4 | 9.7 | 0.00 | 0.00 | 0.00 | 70 | 1011.7 |
| 20260505080339 | 15 | 199 | 4.8 | 9.7 | 0.00 | 0.00 | 0.00 | 71 | 1011.6 |
| 20260505075039 | 15 | 186 | 4.8 | 8.0 | 0.00 | 0.00 | 0.00 | 71 | 1011.7 |
| 20260505073812 | 15 | 185 | 4.8 | 6.4 | 0.00 | 0.00 | 0.00 | 71 | 1011.7 |
| 20260505073739 | 15 | 185 | 4.8 | 6.4 | 0.00 | 0.00 | 0.00 | 71 | 1011.7 |
| 20260505072439 | 15 | 180 | 4.8 | 8.0 | 0.00 | 0.00 | 0.00 | 70 | 1011.6 |
| 20260505071139 | 15 | 190 | 4.8 | 6.4 | 0.00 | 0.00 | 0.00 | 69 | 1011.6 |
| 20260505065839 | 15 | 175 | 4.8 | 8.0 | 0.00 | 0.00 | 0.00 | 69 | 1011.7 |
| 20260505064539 | 16 | 165 | 4.8 | 8.0 | 0.00 | 0.00 | 0.00 | 68 | 1011.7 |
| 20260505063239 | 16 | 194 | 4.8 | 9.7 | 0.00 | 0.00 | 0.00 | 68 | 1011.8 |
| 20260505061939 | 16 | 194 | 6.4 | 9.7 | 0.00 | 0.00 | 0.00 | 68 | 1011.9 |
| 20260505060639 | 16 | 195 | 6.4 | 9.7 | 0.00 | 0.00 | 0.00 | 67 | 1011.7 |
| 20260505055339 | 16 | 198 | 6.4 | 12.9 | 0.00 | 0.00 | 0.00 | 66 | 1012.0 |
| 20260505054039 | 15 | 194 | 6.4 | 11.3 | 0.00 | 0.00 | 0.00 | 66 | 1011.7 |
| 20260505052739 | 16 | 188 | 6.4 | 9.7 | 0.00 | 0.00 | 0.00 | 65 | 1011.8 |
| 20260505051439 | 16 | 198 | 8.0 | 9.7 | 0.00 | 0.00 | 0.00 | 64 | 1011.8 |
| 20260505050139 | 16 | 185 | 6.4 | 12.9 | 0.00 | 0.00 | 0.00 | 64 | 1011.9 |
| 20260505040939 | 16 | 190 | 6.4 | 8.0 | 0.00 | 0.00 | 0.00 | 61 | 1011.8 |
| 20260505035639 | 16 | 190 | 6.4 | 9.7 | 0.00 | 0.00 | 0.00 | 60 | 1011.8 |
| 20260505034339 | 16 | 196 | 4.8 | 8.0 | 0.00 | 0.00 | 0.00 | 59 | 1011.7 |
| 20260505033039 | 16 | 190 | 4.8 | 6.4 | 0.00 | 0.00 | 0.00 | 58 | 1011.6 |
| 20260505031739 | 16 | 196 | 4.8 | 8.0 | 0.00 | 0.00 | 0.00 | 58 | 1011.8 |
| 20260505030439 | 16 | 191 | 4.8 | 9.7 | 0.00 | 0.00 | 0.00 | 58 | 1011.9 |
| 20260505025139 | 16 | 192 | 4.8 | 6.4 | 0.00 | 0.00 | 0.00 | 58 | 1012.0 |
| 20260505023839 | 16 | 192 | 4.8 | 8.0 | 0.00 | 0.00 | 0.00 | 57 | 1012.0 |
| 20260505022539 | 16 | 191 | 3.2 | 8.0 | 0.00 | 0.00 | 0.00 | 57 | 1012.0 |
| 20260505021239 | 16 | 191 | 3.2 | 6.4 | 0.00 | 0.00 | 0.00 | 56 | 1012.0 |
| 20260505020011 | 17 | 190 | 3.2 | 6.4 | 0.00 | 0.00 | 0.00 | 56 | 1012.3 |
| 20260505015939 | 17 | 190 | 3.2 | 6.4 | 0.00 | 0.00 | 0.00 | 56 | 1012.3 |
| 20260505014639 | 17 | 190 | 3.2 | 6.4 | 0.00 | 0.00 | 0.00 | 55 | 1012.2 |
| 20260505013339 | 17 | 188 | 3.2 | 6.4 | 0.00 | 0.00 | 0.00 | 54 | 1012.2 |
| 20260505012039 | 17 | 213 | 3.2 | 6.4 | 0.00 | 0.00 | 0.00 | 53 | 1012.0 |
| 20260505010740 | 17 | 243 | 1.6 | 4.8 | 0.00 | 0.00 | 0.00 | 53 | 1011.8 |
| 20260505005439 | 17 | 239 | 3.2 | 4.8 | 0.00 | 0.00 | 0.00 | 53 | 1011.8 |
| 20260505004140 | 17 | 258 | 3.2 | 6.4 | 0.00 | 0.00 | 0.00 | 54 | 1011.8 |
| 20260505002840 | 17 | 214 | 1.6 | 4.8 | 0.00 | 0.00 | 0.00 | 53 | 1011.6 |
| 20260505001540 | 17 | 263 | 1.6 | 3.2 | 0.00 | 0.00 | 0.00 | 53 | 1011.5 |
| 20260505000240 | 18 | 264 | 1.6 | 4.8 | 0.00 | 0.00 | 0.00 | 52 | 1011.5 |
| 20260504234940 | 18 | 197 | 3.2 | 6.4 | 0.00 | 0.00 | 0.00 | 50 | 1011.4 |
| 20260504233640 | 18 | 196 | 3.2 | 6.4 | 0.00 | 0.00 | 0.00 | 50 | 1011.3 |
| 20260504232340 | 19 | 248 | 3.2 | 9.7 | 0.00 | 0.00 | 0.00 | 50 | 1011.3 |
| 20260504231040 | 19 | 196 | 3.2 | 6.4 | 0.00 | 0.00 | 0.00 | 48 | 1011.4 |
| 20260504225740 | 20 | 244 | 3.2 | 4.8 | 0.00 | 0.00 | 0.00 | 47 | 1011.4 |
| 20260504224440 | 20 | 236 | 3.2 | 6.4 | 0.00 | 0.00 | 0.00 | 47 | 1011.3 |
| 20260504223140 | 20 | 200 | 3.2 | 6.4 | 0.00 | 0.00 | 0.00 | 45 | 1011.4 |
| 20260504221840 | 20 | 213 | 6.4 | 14.5 | 0.00 | 0.00 | 0.00 | 46 | 1011.4 |
| 20260504220540 | 20 | 163 | 4.8 | 11.3 | 0.00 | 0.00 | 0.00 | 45 | 1011.5 |
| 20260504215240 | 20 | 190 | 4.8 | 11.3 | 0.00 | 0.00 | 0.00 | 44 | 1011.5 |
| 20260504213940 | 20 | 180 | 4.8 | 9.7 | 0.00 | 0.00 | 0.00 | 45 | 1011.6 |
| 20260504212640 | 21 | 275 | 1.6 | 6.4 | 0.00 | 0.00 | 0.00 | 44 | 1011.5 |
| 20260504211340 | 21 | 197 | 1.6 | 11.3 | 0.00 | 0.00 | 0.00 | 44 | 1011.6 |
| 20260504210040 | 21 | 194 | 4.8 | 9.7 | 0.00 | 0.00 | 0.00 | 44 | 1011.4 |
| 20260504204740 | 21 | 268 | 4.8 | 11.3 | 0.00 | 0.00 | 0.00 | 45 | 1011.5 |
| 20260504203440 | 21 | 264 | 6.4 | 19.3 | 0.00 | 0.00 | 0.00 | 46 | 1011.5 |
| 20260504202140 | 21 | 197 | 6.4 | 12.9 | 0.00 | 0.00 | 0.00 | 43 | 1011.6 |
| 20260504200840 | 21 | 264 | 4.8 | 14.5 | 0.00 | 0.00 | 0.00 | 45 | 1011.9 |
| 20260504195540 | 21 | 267 | 8.0 | 19.3 | 0.00 | 0.00 | 0.00 | 43 | 1012.0 |
| 20260504194240 | 21 | 227 | 8.0 | 17.7 | 0.00 | 0.00 | 0.00 | 43 | 1012.0 |
| 20260504192940 | 21 | 254 | 4.8 | 8.0 | 0.00 | 0.00 | 0.00 | 45 | 1012.3 |
| 20260504191640 | 21 | 196 | 8.0 | 17.7 | 0.00 | 0.00 | 0.00 | 43 | 1012.5 |
| 20260504190340 | 20 | 242 | 8.0 | 17.7 | 0.00 | 0.00 | 0.00 | 44 | 1012.6 |
| 20260504185040 | 20 | 239 | 8.0 | 20.9 | 0.00 | 0.00 | 0.00 | 43 | 1012.7 |
| 20260504183740 | 20 | 208 | 4.8 | 11.3 | 0.00 | 0.00 | 0.00 | 47 | 1012.9 |
| 20260504182440 | 20 | 265 | 4.8 | 11.3 | 0.00 | 0.00 | 0.00 | 45 | 1013.0 |
| 20260504181140 | 20 | 250 | 4.8 | 11.3 | 0.00 | 0.00 | 0.00 | 45 | 1013.2 |
| 20260504175840 | 19 | 176 | 4.8 | 17.7 | 0.00 | 0.00 | 0.00 | 44 | 1013.4 |
| 20260504174540 | 19 | 206 | 6.4 | 11.3 | 0.00 | 0.00 | 0.00 | 45 | 1013.7 |
| 20260504173240 | 19 | 198 | 4.8 | 14.5 | 0.00 | 0.00 | 0.00 | 46 | 1014.0 |
| 20260504171940 | 18 | 281 | 6.4 | 12.9 | 0.00 | 0.00 | 0.00 | 47 | 1014.2 |
| 20260504170640 | 18 | 228 | 8.0 | 14.5 | 0.00 | 0.00 | 0.00 | 48 | 1014.2 |
| 20260504160140 | 17 | 245 | 3.2 | 12.9 | 0.00 | 0.00 | 0.00 | 49 | 1015.3 |
| 20260504150940 | 16 | 248 | 8.0 | 19.3 | 0.00 | 0.00 | 0.00 | 47 | 1015.9 |
| 20260504140440 | 14 | 186 | 4.8 | 6.4 | 0.00 | 0.00 | 0.00 | 56 | 1015.9 |
| 20260504110241 | 8 | 196 | 6.4 | 9.7 | 0.00 | 0.00 | 0.00 | 59 | 1016.5 |